[[{"header":{"parameterUnit":"m.s-1","parameterCategory":1,"la1":30.2991,"la2":30.254,"lo1":-89.0895,"lo2":-89.0444,"dy":0.0017,"dx":0.0017,"nx":28,"ny":28,"refTime":"2025-08-07T03:00:00:Z","depth":0,"parameterNumber":2,"parameterNumberName":"U-component_of_WINDS"},"data":[0,0,0,0,0,0,0,0,0,0,0,0,0,0,0,0,0,0,0,0,0,0,0,0,0,0,0,0,0,0,0,0,0,0,0,0,0,0,0,0,0,0,0,0,0,0,0,0,0,0,0,0,0,0,0,0,0,0,-2.1232,-2.1232,0,-2.1266,-2.1267,-2.1267,-2.1251,-2.125,-2.125,-2.1249,-2.128,-2.1282,-2.1283,0,0,0,0,0,0,0,0,0,0,0,0,0,-2.1149,-2.115,-2.1232,-2.1232,-2.1233,-2.1266,-2.1267,-2.1267,-2.1251,-2.125,-2.1249,-2.1248,-2.128,-2.1282,-2.1284,0,0,0,0,0,0,0,0,0,0,0,0,0,-2.1184,-2.1151,-2.1232,-2.1229,-2.1229,-2.1266,-2.1267,-2.1267,-2.1252,-2.125,-2.1249,-2.1248,-2.1279,-2.1281,-2.1284,-2.1324,0,0,-2.1291,-2.1292,0,0,0,0,0,0,0,0,-2.1182,-2.1187,-2.1229,-2.1229,-2.1229,-2.1253,-2.1249,-2.1286,-2.1252,-2.1243,-2.1249,-2.1247,-2.1272,-2.1275,-2.1284,-2.1326,-2.1327,-2.1291,-2.1293,-2.1294,-2.1295,0,0,0,0,0,0,0,-2.118,-2.1185,-2.1245,-2.1229,-2.123,-2.1225,-2.1228,-2.1256,-2.1264,-2.1244,-2.1243,-2.1247,-2.1272,-2.1282,-2.1285,-2.1328,-2.1291,-2.1294,-2.1295,-2.1296,-2.1404,-2.1405,0,0,0,0,0,0,-2.1178,-2.1184,-2.1244,-2.1246,-2.1202,-2.1227,-2.1231,-2.1247,-2.1264,-2.1265,-2.1248,-2.1246,-2.1278,-2.1282,-2.1286,-2.1334,-2.1294,-2.1296,-2.1298,-2.1402,-2.1404,-2.1405,0,0,0,0,0,0,-2.1176,-2.1183,-2.1243,-2.1215,-2.1222,-2.123,-2.1248,-2.1248,-2.1258,-2.1267,-2.1268,-2.1257,-2.1277,-2.1282,-2.1315,-2.1334,-2.1297,-2.13,-2.1401,-2.1403,-2.1405,-2.143,0,0,0,0,0,0,-2.1174,-2.1183,-2.1199,-2.1215,-2.1223,-2.1272,-2.1249,-2.125,-2.1263,-2.1261,-2.1276,-2.1277,-2.1277,-2.1311,-2.1317,-2.1337,-2.1302,-2.1399,-2.1401,-2.1404,-2.1427,-2.1433,-2.1437,0,0,0,0,0,-2.1171,-2.1204,-2.12,-2.1207,-2.1244,-2.1274,-2.1278,-2.1278,-2.1264,-2.128,-2.1286,-2.1277,-2.1332,-2.1315,-2.1321,-2.1342,-2.1397,-2.1401,-2.1404,-2.1425,-2.1432,-2.1437,0,0,0,0,0,0,-2.1188,-2.1206,-2.1202,-2.1241,-2.1256,-2.1271,-2.1291,-2.1285,-2.1303,-2.13,-2.1299,-2.1302,-2.1336,-2.1342,-2.1323,-2.1382,-2.1362,-2.1367,-2.1376,-2.1382,-2.1387,-2.1384,-2.1304,0,0,0,0,0,-2.1197,-2.1221,-2.1235,-2.1268,-2.1276,-2.1282,-2.1295,-2.1294,-2.1309,-2.1315,-2.1323,-2.1337,-2.1357,-2.137,-2.139,-2.1429,-2.1431,-2.1446,-2.1451,-2.1455,-2.1458,-2.1479,-2.1485,-2.1416,-2.1416,-2.1416,0,0,-2.1215,-2.1227,-2.1242,-2.1272,-2.1284,-2.1307,-2.1288,-2.1313,-2.133,-2.1318,-2.135,-2.1356,-2.1371,-2.1407,-2.1424,-2.1414,-2.1479,-2.1459,-2.1462,-2.1463,-2.1483,-2.1489,-2.1495,-2.1418,-2.1417,-2.1417,0,0,-2.1259,-2.1272,-2.1301,-2.1313,-2.1331,-2.1335,-2.1342,-2.1358,-2.1362,-2.1394,-2.1386,-2.1405,-2.1441,-2.1452,-2.1462,-2.1511,-2.1502,-2.1517,-2.1542,-2.1562,-2.1567,-2.1572,-2.1589,-2.1595,-2.1521,-2.1521,-2.1521,0,-2.1278,-2.1314,-2.1316,-2.1342,-2.1355,-2.1348,-2.1376,-2.1388,-2.141,-2.1419,-2.1408,-2.1453,-2.1462,-2.15,-2.1512,-2.1521,-2.1528,-2.1515,-2.1567,-2.1572,-2.1576,-2.1592,-2.1598,-2.1523,-2.1523,-2.1522,-2.1522,0,-2.1336,-2.1361,-2.1383,-2.1407,-2.1422,-2.1449,-2.1454,-2.1469,-2.1467,-2.1472,-2.1504,-2.1516,-2.1537,-2.1547,-2.1544,-2.1584,-2.1578,-2.1567,-2.1547,-2.1584,-2.1599,-2.1605,-2.1525,-2.1525,-2.1524,-2.1524,0,0,-2.1391,-2.1416,-2.1424,-2.1434,-2.1454,-2.1473,-2.15,-2.1522,-2.1535,-2.1551,-2.1572,-2.1603,-2.1594,-2.1605,-2.1604,-2.1622,-2.1659,-2.1609,-2.1609,-2.1617,-2.1702,-2.1709,-2.1716,-2.1654,-2.1655,-2.1656,-2.17,0,-2.1435,-2.1484,-2.1486,-2.1529,-2.1552,-2.1545,-2.1569,-2.1583,-2.1588,-2.1607,-2.1613,-2.1634,-2.1621,-2.1627,-2.1645,-2.1651,-2.1676,-2.1648,-2.1672,-2.1673,-2.1667,-2.1723,-2.1731,-2.1772,-2.1706,-2.1707,-2.1708,0,-2.1493,-2.1513,-2.1559,-2.1575,-2.1585,-2.1606,-2.1626,-2.1645,-2.1661,-2.1663,-2.1677,-2.1674,-2.17,-2.168,-2.1716,-2.1697,-2.1707,-2.1712,-2.1713,-2.1714,-2.1692,-2.1724,-2.1785,-2.1791,-2.1717,-2.1716,-2.1716,0,-2.1527,-2.1564,-2.1597,-2.1606,-2.1627,-2.1641,-2.165,-2.1665,-2.1678,-2.1696,-2.1704,-2.1724,-2.1735,-2.175,-2.1752,-2.1738,-2.1787,-2.1768,-2.1788,-2.1788,-2.1798,-2.1797,-2.1859,-2.1807,-2.1807,-2.1807,-2.1807,0,-2.1575,-2.1603,-2.1612,-2.1632,-2.1663,-2.1665,-2.1695,-2.1703,-2.1716,-2.1736,-2.1732,-2.175,-2.1752,-2.1771,-2.1773,-2.1801,-2.1806,-2.1808,-2.1808,-2.1808,-2.1807,-2.1813,-2.181,-2.1809,-2.1808,-2.1808,-2.1808,0,-2.1617,-2.1624,-2.1659,-2.1676,-2.1681,-2.1703,-2.1717,-2.1735,-2.1741,-2.1766,-2.1772,-2.1781,-2.1803,-2.1807,-2.1832,-2.1833,-2.1867,-2.1865,-2.1862,-2.1861,-2.1881,-2.1879,-2.1948,-2.1957,-2.1901,-2.1901,-2.1902,0,-2.1647,-2.1668,-2.1688,-2.1702,-2.1712,-2.1735,-2.1748,-2.1752,-2.1766,-2.1786,-2.1801,-2.1823,-2.1841,-2.1876,-2.1884,-2.1903,-2.19,-2.1924,-2.1903,-2.1902,-2.1899,-2.1897,-2.1899,-2.1927,-2.1927,-2.1928,-2.1928,0,-2.1698,-2.1701,-2.1722,-2.1744,-2.1761,-2.1778,-2.1794,-2.1806,-2.1811,-2.1827,-2.1851,-2.1865,-2.1892,-2.1913,-2.1933,-2.194,-2.1935,-2.1935,-2.1941,-2.194,-2.1937,-2.1937,-2.1871,-2.1933,-2.1932,-2.1932,-2.1932,-2.1932,-2.1734,-2.1752,-2.177,-2.1793,-2.1806,-2.1821,-2.1839,-2.1848,-2.1868,-2.1891,-2.1891,-2.1917,-2.1931,-2.1957,-2.1967,-2.1985,-2.1978,-2.1986,-2.1988,-2.199,-2.1991,-2.1935,-2.1989,-2.1989,-2.1989,-2.1989,-2.1989,0,-2.1784,-2.1795,-2.1816,-2.184,-2.1858,-2.1853,-2.1871,-2.1886,-2.1909,-2.1924,-2.1942,-2.1968,-2.1989,-2.1999,-2.2019,-2.2032,-2.203,-2.2037,-2.2035,-2.2037,-2.1997,-2.199,-2.2039,-2.2039,-2.2038,-2.2038,-2.2038,-2.2038,-2.1812,-2.1843,-2.1848,-2.1885,-2.1895,-2.1921,-2.1932,-2.1946,-2.1957,-2.1988,-2.2006,-2.2012,-2.2025,-2.2046,-2.2065,-2.2067,-2.2074,-2.2082,-2.2083,-2.2045,-2.204,-2.2035,-2.2028,-2.2084,-2.2084,-2.2121,-2.2121,-2.2121]},{"header":{"parameterUnit":"m.s-1","parameterCategory":1,"la1":30.2991,"la2":30.254,"lo1":-89.0895,"lo2":-89.0444,"dy":0.0017,"dx":0.0017,"nx":28,"ny":28,"refTime":"2025-08-07T03:00:00:Z","depth":0,"parameterNumber":3,"parameterNumberName":"V-component_of_WINDS"},"data":[0,0,0,0,0,0,0,0,0,0,0,0,0,0,0,0,0,0,0,0,0,0,0,0,0,0,0,0,0,0,0,0,0,0,0,0,0,0,0,0,0,0,0,0,0,0,0,0,0,0,0,0,0,0,0,0,0,0,-0.2698,-0.2698,0,-0.2743,-0.2744,-0.2744,-0.2749,-0.2748,-0.2748,-0.2747,-0.2796,-0.2798,-0.28,0,0,0,0,0,0,0,0,0,0,0,0,0,-0.2617,-0.2619,-0.2698,-0.2698,-0.2699,-0.2743,-0.2744,-0.2745,-0.2749,-0.2748,-0.2748,-0.2747,-0.2796,-0.2798,-0.28,0,0,0,0,0,0,0,0,0,0,0,0,0,-0.2656,-0.2619,-0.2698,-0.2706,-0.2708,-0.2743,-0.2744,-0.2745,-0.2749,-0.2748,-0.2747,-0.2747,-0.2795,-0.2798,-0.28,-0.2831,0,0,-0.2808,-0.2809,0,0,0,0,0,0,0,0,-0.2654,-0.2659,-0.2705,-0.2706,-0.2707,-0.2739,-0.2733,-0.2774,-0.2749,-0.2733,-0.2747,-0.2746,-0.2778,-0.2782,-0.2792,-0.2833,-0.2836,-0.2809,-0.281,-0.2811,-0.2812,0,0,0,0,0,0,0,-0.2651,-0.2657,-0.2716,-0.2705,-0.2707,-0.2709,-0.2714,-0.2741,-0.2759,-0.2735,-0.2735,-0.274,-0.2779,-0.279,-0.2794,-0.2836,-0.2809,-0.2811,-0.2812,-0.2814,-0.2906,-0.2906,0,0,0,0,0,0,-0.2647,-0.2655,-0.2715,-0.2717,-0.2678,-0.2711,-0.2716,-0.273,-0.2759,-0.2763,-0.2741,-0.274,-0.2786,-0.2791,-0.2795,-0.2834,-0.2811,-0.2814,-0.2815,-0.2905,-0.2906,-0.2907,0,0,0,0,0,0,-0.2645,-0.2652,-0.2713,-0.2686,-0.2694,-0.2713,-0.2728,-0.2731,-0.2742,-0.2764,-0.2767,-0.2748,-0.2785,-0.2792,-0.2822,-0.2836,-0.2815,-0.2817,-0.2904,-0.2905,-0.2906,-0.2911,0,0,0,0,0,0,-0.2643,-0.2651,-0.2663,-0.2687,-0.2696,-0.2738,-0.2729,-0.2733,-0.2746,-0.2746,-0.2772,-0.2775,-0.2785,-0.2818,-0.2825,-0.2839,-0.2819,-0.2903,-0.2904,-0.2906,-0.291,-0.2913,-0.2915,0,0,0,0,0,-0.264,-0.2663,-0.2663,-0.267,-0.271,-0.2739,-0.2744,-0.2754,-0.2747,-0.276,-0.2773,-0.2775,-0.2833,-0.2821,-0.2829,-0.2844,-0.2902,-0.2904,-0.2906,-0.2909,-0.2912,-0.2915,0,0,0,0,0,0,-0.2641,-0.2666,-0.2667,-0.2698,-0.2716,-0.2739,-0.2755,-0.2757,-0.2778,-0.2777,-0.2789,-0.2795,-0.2825,-0.2838,-0.2824,-0.2876,-0.2867,-0.287,-0.2867,-0.287,-0.2872,-0.2869,-0.2822,0,0,0,0,0,-0.2645,-0.2665,-0.2686,-0.2712,-0.2721,-0.2736,-0.2749,-0.2755,-0.2775,-0.2783,-0.2799,-0.2818,-0.2841,-0.2856,-0.2878,-0.2911,-0.2918,-0.2926,-0.2928,-0.293,-0.2933,-0.2952,-0.2957,-0.2913,-0.2913,-0.2913,0,0,-0.2653,-0.2669,-0.2682,-0.2713,-0.2727,-0.2749,-0.2743,-0.2766,-0.2783,-0.2787,-0.2816,-0.2829,-0.2851,-0.2884,-0.2899,-0.2895,-0.2946,-0.2932,-0.2934,-0.2936,-0.2955,-0.2959,-0.2963,-0.2914,-0.2914,-0.2914,0,0,-0.268,-0.2693,-0.2717,-0.2731,-0.2753,-0.2763,-0.2769,-0.2792,-0.28,-0.283,-0.2833,-0.2853,-0.2892,-0.2908,-0.2922,-0.2954,-0.2956,-0.2961,-0.2974,-0.2992,-0.2996,-0.2999,-0.3012,-0.3016,-0.2964,-0.2964,-0.2964,0,-0.2688,-0.272,-0.2728,-0.2752,-0.2766,-0.2769,-0.2793,-0.2807,-0.2836,-0.2845,-0.284,-0.2889,-0.2905,-0.2941,-0.2949,-0.2959,-0.2967,-0.2959,-0.2994,-0.2998,-0.3001,-0.3013,-0.3017,-0.2964,-0.2964,-0.2964,-0.2964,0,-0.2729,-0.2751,-0.2767,-0.2794,-0.281,-0.2833,-0.2846,-0.2861,-0.2865,-0.2876,-0.2907,-0.2925,-0.2952,-0.296,-0.2965,-0.2998,-0.2995,-0.2992,-0.2983,-0.3005,-0.3017,-0.3022,-0.2965,-0.2965,-0.2965,-0.2965,0,0,-0.2759,-0.2789,-0.2795,-0.2807,-0.2832,-0.285,-0.2873,-0.2898,-0.2911,-0.293,-0.2952,-0.2984,-0.2981,-0.2997,-0.3003,-0.3019,-0.3045,-0.3015,-0.3015,-0.3021,-0.3083,-0.3085,-0.309,-0.3046,-0.3047,-0.3047,-0.3081,0,-0.2789,-0.2831,-0.2839,-0.2876,-0.2897,-0.29,-0.2921,-0.2939,-0.295,-0.297,-0.2982,-0.3005,-0.2999,-0.3008,-0.3024,-0.3038,-0.3058,-0.3036,-0.3067,-0.3068,-0.3062,-0.3096,-0.31,-0.313,-0.3085,-0.3086,-0.3087,0,-0.283,-0.2849,-0.2888,-0.291,-0.2919,-0.2938,-0.2961,-0.298,-0.3,-0.3007,-0.3023,-0.3028,-0.3054,-0.3043,-0.3079,-0.3064,-0.3077,-0.3086,-0.3087,-0.3092,-0.3079,-0.3103,-0.314,-0.3145,-0.3094,-0.3093,-0.3093,0,-0.2849,-0.2885,-0.2913,-0.2923,-0.2949,-0.2962,-0.2974,-0.2993,-0.3007,-0.3028,-0.3038,-0.3061,-0.3074,-0.3093,-0.3104,-0.3095,-0.314,-0.313,-0.3147,-0.3147,-0.3157,-0.3157,-0.3199,-0.3164,-0.3163,-0.3163,-0.3163,0,-0.2882,-0.2906,-0.2922,-0.2939,-0.2966,-0.2976,-0.3002,-0.3014,-0.3031,-0.3051,-0.3055,-0.3074,-0.3088,-0.3109,-0.3118,-0.3147,-0.3152,-0.3159,-0.3162,-0.316,-0.3159,-0.3169,-0.3168,-0.3165,-0.3164,-0.3164,-0.3164,0,-0.2909,-0.292,-0.2951,-0.2973,-0.2979,-0.2998,-0.3017,-0.3034,-0.3044,-0.307,-0.3076,-0.3093,-0.3118,-0.313,-0.3162,-0.3168,-0.3201,-0.3201,-0.3194,-0.3195,-0.3212,-0.3211,-0.3263,-0.3271,-0.3229,-0.323,-0.323,0,-0.293,-0.2949,-0.2972,-0.2985,-0.2997,-0.3019,-0.3033,-0.3043,-0.3058,-0.3083,-0.3097,-0.3122,-0.3143,-0.3183,-0.3198,-0.3222,-0.3224,-0.324,-0.3228,-0.3225,-0.3225,-0.3225,-0.3227,-0.3243,-0.3244,-0.3244,-0.3244,0,-0.2967,-0.2972,-0.2992,-0.3015,-0.3032,-0.305,-0.3068,-0.3079,-0.3092,-0.3109,-0.3134,-0.315,-0.3182,-0.3207,-0.3232,-0.3245,-0.3247,-0.3248,-0.3253,-0.3252,-0.3248,-0.3252,-0.3201,-0.3247,-0.3247,-0.3247,-0.3246,-0.3246,-0.2993,-0.3009,-0.3028,-0.3051,-0.3066,-0.3082,-0.31,-0.3112,-0.3133,-0.3159,-0.3164,-0.3191,-0.3211,-0.3244,-0.3258,-0.3279,-0.3276,-0.3284,-0.3286,-0.3288,-0.3289,-0.3243,-0.3284,-0.3284,-0.3284,-0.3284,-0.3284,0,-0.3031,-0.3043,-0.3064,-0.3089,-0.3107,-0.3106,-0.3126,-0.3142,-0.3165,-0.3183,-0.3203,-0.3232,-0.3257,-0.3273,-0.3298,-0.3312,-0.3314,-0.3319,-0.3319,-0.3322,-0.329,-0.3284,-0.3317,-0.3317,-0.3317,-0.3317,-0.3317,-0.3317,-0.3053,-0.3081,-0.3088,-0.3124,-0.3136,-0.3162,-0.3174,-0.319,-0.3204,-0.3237,-0.3256,-0.3267,-0.3285,-0.3311,-0.3333,-0.3337,-0.3347,-0.3352,-0.3356,-0.3327,-0.3324,-0.332,-0.3314,-0.3353,-0.3353,-0.3386,-0.3386,-0.3386]}]]